User: anonymous   Login
Location: Unspecified
(0.0000°N, 0.0000°E)
Time: 17:07:01
(UTC+00:00)
Language:

SOMP 2 - Orbit

View from above orbital plane
View from above orbital plane
View from above satellite
View from above satellite

Ground track
Ground track

The orbit data is extracted from the following two-line orbital elements,

1 42701U 98067LJ  18348.60664846  .00057865  00000-0  24960-3 0  9993
2 42701  51.6317 146.9459 0003989 221.1955 138.8748 15.84382747 90446
Epoch (UTC): 14 December 2018 14:33:34
Eccentricity: 0.0003989
inclination: 51.6317°
perigee height: 315 km
apogee height: 321 km
right ascension of ascending node: 146.9459°
argument of perigee: 221.1955°
revolutions per day: 15.84382747
mean anomaly at epoch: 138.8748°
orbit number at epoch: 9044

The dashed part of the orbit path shows where the satellite is in the earth's shadow,  

DLR